User: anonymous
Location: Platte
(43.3870°N, 98.8440°W)
Time: 06:17:57
(UTC-05:00)
Language:

Landsat 7 - Orbit

View from above orbital plane
View from above orbital plane
View from above satellite
View from above satellite

Ground track
Ground track

The orbit data is extracted from the following two-line orbital elements,

1 25682U 99020A   14244.17386549  .00000267  00000-0  69212-4 0  5604
2 25682 098.2093 312.7556 0000771 089.7116 270.4215 14.57107535818053
Epoch (UTC): 01 September 2014 04:10:21
Eccentricity: 0.0000771
inclination: 98.2093°
perigee height: 702 km
apogee height: 703 km
right ascension of ascending node: 312.7556°
argument of perigee: 89.7116°
revolutions per day: 14.57107535
mean anomaly at epoch: 270.4215°
orbit number at epoch: 81805

The dashed part of the orbit path shows where the satellite is in the earth's shadow,  

DLR